GFSNW_prec_cloud_114.txt.gz
Cloud_Cover
0 1 0 51 100 100 100 100 100 100 100 100 100 84 92 24 79 99 41 88 98 100 95 99 79 97 100 100 100 96 100 100 100 100 100 47 6 99 100 100 99 100 100 54
0 0 2 100 100 98 100 100 100 100 100 100 99 85 33 97 74 100 53 94 98 100 100 100 99 100 100 100 78 100 100 100 100 97 96 92 100 83 100 62 62 100 100 97
0 3 17 100 100 98 100 100 100 100 100 96 100 99 91 35 81 9 42 99 100 100 100 99 99 100 100 100 100 100 100 97 32 70 94 42 100 100 85 100 100 99 100 100
0 5 26 100 100 100 100 100 90 18 95 100 87 47 31 89 74 59 97 100 100 100 100 100 100 100 100 100 100 88 62 29 10 5 5 78 86 99 97 100 100 100 100 100
14 5 68 100 100 100 100 100 16 63 61 81 68 84 74 100 100 100 100 100 92 87 90 100 100 100 100 100 76 7 81 28 86 100 48 89 100 100 100 100 100 100 100 100
41 0 100 100 100 100 100 100 35 78 13 78 67 37 100 100 100 100 100 100 100 100 100 100 100 100 74 86 72 76 100 93 100 93 88 100 100 100 100 100 100 100 100 100
24 100 100 100 100 100 100 100 56 69 73 71 89 100 100 100 100 99 98 100 100 100 100 100 100 92 79 100 87 94 100 100 100 98 95 100 100 100 100 100 100 100 100 100
100 100 100 100 100 100 100 97 86 90 100 100 100 100 100 100 100 100 100 100 100 100 100 100 100 100 100 100 100 100 99 100 100 100 98 100 100 100 100 100 100 100 100 100
100 100 100 100 100 100 100 100 100 100 100 100 100 100 100 100 100 100 100 100 100 100 100 100 96 100 93 90 100 98 100 100 100 99 100 100 100 100 100 100 100 100 100 100
100 100 100 100 100 100 100 100 100 100 100 100 100 100 100 100 100 100 100 100 100 100 100 100 100 100 95 99 100 100 100 100 97 100 100 100 100 100 100 100 100 100 100 100
100 100 100 100 100 100 100 100 100 100 100 100 100 100 100 100 100 100 100 100 100 100 100 100 96 94 98 96 88 100 100 100 100 100 100 100 100 100 100 100 100 100 100 100
100 100 100 100 100 100 100 100 100 96 95 100 100 100 100 100 100 100 100 100 100 100 98 33 72 100 100 93 99 100 100 96 100 100 100 100 100 100 100 100 100 81 82 99
100 100 100 100 100 100 100 100 100 100 100 100 100 100 100 100 100 100 100 100 84 26 20 76 95 98 96 100 97 100 100 100 100 99 100 100 100 100 100 100 100 100 100 100
100 100 100 100 100 100 100 100 100 100 100 100 100 100 100 100 100 100 67 75 67 8 43 100 100 100 83 93 58 100 100 100 100 100 100 100 100 100 100 100 100 100 100 100
100 100 100 100 100 100 100 100 95 100 100 100 100 98 96 100 100 83 40 18 5 5 20 100 100 87 89 76 18 100 100 99 100 100 99 100 100 100 100 89 100 100 100 100
100 100 100 100 100 100 100 100 100 100 100 100 93 100 100 100 81 41 5 3 4 5 70 100 93 31 91 98 89 100 100 100 100 100 100 100 100 100 100 100 100 100 100 100
100 100 100 100 100 100 100 100 100 100 67 84 96 100 100 51 6 5 3 1 5 5 21 86 90 85 79 63 90 100 100 100 100 100 99 100 100 100 100 100 99 100 97 100
100 100 100 100 100 100 100 100 100 90 96 100 100 100 76 13 42 17 2 5 5 5 5 26 80 32 21 99 100 100 100 100 100 100 100 100 100 100 100 100 94 98 35 18
100 100 100 100 100 100 100 81 96 68 65 100 100 64 94 5 9 16 30 5 5 5 15 24 47 71 82 58 68 100 100 100 100 100 100 100 100 100 100 100 96 53 50 51
100 100 100 100 100 100 77 75 39 21 67 91 92 70 90 55 19 40 36 19 74 71 82 41 89 85 40 31 30 100 100 100 100 100 100 100 100 100 100 100 88 43 100 100
100 100 100 100 100 100 39 54 89 98 80 29 84 86 43 9 84 51 47 71 34 96 91 98 99 98 81 83 66 100 100 100 100 100 100 100 100 100 100 94 92 100 100 100
95 73 100 100 100 90 68 64 88 97 87 50 95 81 90 52 6 82 23 88 41 100 74 98 99 62 42 91 84 100 100 100 100 100 100 100 100 100 100 100 100 100 100 100
100 64 100 99 78 79 84 93 100 100 89 100 66 39 52 19 18 15 43 50 89 15 95 96 68 50 100 99 100 100 100 100 100 100 100 100 100 100 100 100 100 100 100 98
48 99 100 100 100 91 89 100 100 87 100 91 37 33 74 5 11 9 59 70 66 94 93 83 82 100 100 100 100 99 100 100 100 100 100 100 100 100 100 100 100 100 100 71
100 100 100 100 100 100 100 100 96 100 100 68 7 10 48 6 18 10 44 93 72 41 87 89 87 100 100 100 100 76 100 100 100 100 100 100 100 100 100 100 100 100 100 76
100 100 100 100 100 100 100 100 75 75 40 5 10 48 85 98 70 57 35 29 48 49 55 100 78 100 100 99 100 100 100 99 100 100 100 100 100 100 100 100 100 100 100 100
100 100 100 99 100 100 100 99 100 92 27 47 53 42 93 72 92 67 9 76 44 98 100 100 96 100 98 100 100 100 100 100 100 100 100 100 100 100 100 100 100 100 100 60

GFSNW_prec_cloud_117.txt.gz
Cloud_Cover
5 5 0 5 11 100 100 100 100 100 100 100 100 96 74 33 75 9 32 9 65 9 100 5 7 82 65 2 57 75 48 96 84 8 79 99 100 86 99 100 100 100 98 100
54 6 4 5 46 100 100 100 100 100 100 100 76 49 77 66 82 5 5 2 8 27 96 60 30 12 25 99 99 100 96 20 83 100 100 95 100 90 61 99 94 83 100 92
83 17 5 4 48 100 100 100 100 100 100 100 65 99 54 88 5 21 5 15 27 97 88 26 67 100 34 55 86 95 47 100 100 100 100 100 100 98 92 89 86 96 94 100
85 51 3 0 63 100 100 100 100 29 94 100 100 100 85 97 46 17 22 9 22 98 100 100 90 72 28 85 94 97 100 100 100 96 40 26 64 75 100 100 65 100 100 100
22 8 5 0 64 100 100 98 100 96 99 99 99 100 72 100 99 5 5 9 100 100 100 100 82 50 96 94 100 100 100 100 28 5 5 78 95 82 100 100 100 100 100 100
5 30 30 0 61 100 100 52 100 100 100 99 97 79 73 88 100 6 69 100 100 100 87 100 100 97 99 100 100 100 92 66 89 89 91 35 83 100 100 100 100 100 100 100
65 5 26 5 69 100 100 100 100 84 65 80 25 82 84 100 42 92 100 100 100 100 78 95 99 100 100 100 100 100 70 98 100 97 90 100 100 100 100 100 100 100 96 100
80 5 5 5 78 100 100 100 76 100 86 90 100 99 100 100 100 100 100 100 100 100 100 100 100 100 100 100 100 98 100 100 100 95 100 90 100 100 100 100 100 100 100 100
41 5 5 15 86 100 100 100 100 100 85 98 80 95 93 100 100 100 100 100 100 100 100 100 100 100 100 96 97 86 100 100 100 100 100 100 100 100 100 100 100 100 100 100
29 94 71 56 100 100 100 100 100 100 100 47 90 100 100 100 100 100 100 100 100 100 100 100 100 100 98 92 100 82 100 100 82 100 100 100 100 100 99 100 100 100 100 100
88 76 100 100 100 100 100 100 100 100 83 100 100 100 100 100 100 100 100 100 100 100 100 100 100 100 98 53 88 99 91 98 100 99 100 100 100 100 100 100 100 100 100 100
100 100 100 100 100 100 100 100 100 100 100 100 100 100 100 100 100 100 100 100 100 100 100 100 100 100 74 96 99 47 92 81 97 96 98 100 100 100 100 100 100 100 100 100
100 100 100 100 100 100 100 100 100 100 100 100 100 100 100 100 100 100 100 100 100 100 100 100 95 94 84 98 100 97 85 21 91 55 96 100 100 100 100 100 100 100 100 100
100 100 100 100 100 100 100 100 100 100 100 100 100 100 100 100 100 100 100 100 100 100 100 100 100 97 77 98 87 90 74 67 100 100 100 100 100 100 100 100 100 100 100 92
100 100 100 100 100 100 100 100 100 100 100 100 100 100 100 100 100 100 100 100 82 84 76 69 100 100 86 99 65 82 54 95 78 100 98 91 91 100 100 100 100 100 100 100
100 100 100 100 100 100 100 100 100 100 100 100 100 100 100 100 100 100 100 100 61 84 96 86 100 100 85 95 92 100 77 100 91 96 82 100 100 100 100 100 100 100 100 100
100 100 100 100 100 100 100 100 100 100 100 100 100 100 100 100 100 100 92 6 5 47 93 96 100 88 30 100 100 99 100 100 100 86 99 100 100 100 100 100 100 100 100 100
100 100 100 100 100 100 100 100 100 100 100 100 100 100 94 100 100 44 7 5 4 2 15 14 94 75 75 100 93 100 100 100 100 100 100 100 100 100 100 100 100 100 100 100
100 100 100 100 100 100 100 100 100 100 100 100 94 100 100 100 89 68 5 5 16 8 31 48 14 93 79 89 87 100 95 87 100 100 100 99 92 95 89 98 99 88 81 58
100 100 100 100 100 100 100 100 100 100 57 94 100 100 100 46 46 98 60 5 20 60 35 62 9 93 22 13 48 55 78 100 100 100 100 100 100 100 100 98 98 100 100 93
100 100 100 100 100 100 100 100 99 52 98 99 100 100 100 54 98 88 69 83 61 76 86 82 54 31 66 74 79 73 88 100 100 100 100 100 100 100 100 100 97 92 100 82
84 100 100 100 100 100 100 97 82 92 100 98 100 100 79 68 54 84 35 98 41 80 42 90 71 75 56 88 95 100 82 100 100 100 100 100 100 100 100 100 100 98 100 100
100 100 100 100 100 100 100 80 84 100 100 77 85 80 78 8 97 73 84 21 96 79 89 94 95 63 94 100 100 100 100 100 100 100 100 100 100 100 100 100 100 100 88 100
100 100 100 100 100 100 99 98 100 99 100 100 100 69 94 83 54 32 93 84 78 100 100 96 93 80 99 91 100 100 100 100 100 100 100 100 100 100 100 100 100 100 100 100
100 100 100 91 90 99 100 100 100 100 100 94 62 34 45 65 43 79 66 82 85 62 92 99 100 100 100 96 99 83 100 100 100 100 100 100 100 100 100 100 100 100 100 100
43 73 98 100 100 100 100 97 100 100 65 57 10 34 96 89 67 57 72 61 73 71 100 100 100 100 100 100 100 100 100 100 100 100 100 100 100 100 100 100 100 100 100 100
79 92 100 100 98 100 100 100 100 86 79 62 95 64 95 63 86 77 86 92 98 100 100 100 100 100 100 100 97 100 100 100 100 100 100 100 100 100 100 100 100 100 100 100

GFSNW_prec_cloud_123.txt.gz
Cloud_Cover
99 47 22 96 100 100 100 100 100 100 100 100 100 100 100 96 100 96 70 38 95 67 100 100 100 61 100 5 5 5 1 0 0 0 0 1 5 10 70 100 7 99 100 37
100 95 85 26 12 5 90 100 100 100 100 100 86 22 62 85 99 37 96 30 5 13 73 84 26 100 12 5 2 3 5 14 4 0 0 1 3 5 13 99 99 100 52 48
61 58 86 100 99 7 96 100 100 100 100 100 42 12 18 60 66 100 99 52 100 100 99 100 24 7 5 5 5 5 5 5 5 3 5 3 1 29 18 75 100 66 6 53
52 65 9 55 100 35 96 94 100 29 99 100 100 58 26 94 23 19 100 100 100 100 100 100 60 5 4 2 22 60 70 5 5 5 5 5 5 87 98 100 71 99 11 16
5 5 98 100 100 88 100 95 86 5 5 13 100 100 99 8 5 5 5 61 100 100 100 100 10 77 5 5 5 44 15 44 61 98 6 84 100 100 18 5 2 2 5 53
34 28 5 100 100 100 100 100 52 4 1 34 94 60 5 12 79 78 23 16 67 14 24 98 28 14 5 6 12 100 83 100 36 100 37 100 100 25 5 5 5 39 86 97
60 49 5 5 85 100 100 90 100 51 40 10 38 12 5 5 3 18 79 100 100 100 91 6 79 42 76 80 100 100 100 98 76 100 41 99 63 5 5 5 98 94 97 100
100 100 38 24 5 12 93 100 84 40 39 5 28 5 5 5 26 90 12 100 84 5 9 99 81 99 70 100 93 100 100 100 100 100 79 89 41 5 14 96 100 100 100 100
48 100 100 100 5 79 20 100 98 16 6 17 33 5 3 5 5 25 90 100 100 22 94 96 86 100 100 93 100 100 100 100 100 100 100 62 31 84 98 100 100 100 100 100
87 100 100 100 22 80 83 99 100 68 79 4 54 23 3 5 33 36 34 82 92 100 79 86 100 100 100 100 100 100 100 100 100 100 100 78 24 25 76 100 100 100 100 100
100 96 100 100 18 79 75 100 100 100 66 4 0 8 4 21 64 20 37 63 92 88 100 100 100 100 100 100 100 100 100 100 100 100 100 73 56 5 63 100 100 100 100 100
99 82 100 94 5 78 92 100 100 100 100 27 66 98 98 61 7 5 8 84 63 100 100 100 100 100 100 100 100 100 100 100 100 100 45 57 53 57 86 100 100 100 100 100
100 97 100 8 11 22 84 100 100 100 100 10 75 30 31 49 90 86 100 100 100 100 100 100 100 100 100 100 100 100 100 100 100 100 29 29 92 46 56 100 100 98 95 100
100 95 100 5 5 5 100 100 100 100 79 100 99 6 66 100 100 100 100 100 100 100 99 100 100 100 100 100 100 100 100 100 100 70 38 14 63 86 31 100 100 100 100 100
100 34 10 5 5 5 100 100 100 91 37 91 100 65 100 100 100 100 100 100 100 100 100 100 100 100 100 100 100 100 100 100 17 7 5 5 8 65 94 100 100 100 98 100
89 70 5 5 5 5 5 100 100 48 98 98 100 100 100 100 100 100 100 100 100 100 100 100 100 100 100 100 100 100 80 72 8 5 5 5 10 61 85 99 100 100 100 100
31 5 5 5 5 28 100 77 32 95 55 84 100 100 100 100 100 100 100 100 100 100 100 100 100 100 100 100 34 25 72 8 5 5 9 90 59 99 100 100 100 100 100 100
24 5 55 96 100 100 100 100 100 100 100 100 100 100 100 100 100 100 100 100 100 100 100 100 100 100 98 23 53 5 5 11 9 5 5 5 12 98 100 100 100 100 100 100
100 100 100 100 98 100 100 100 100 100 100 100 100 100 100 100 100 100 100 100 100 100 100 100 100 72 5 2 8 69 5 11 10 44 89 8 60 100 100 100 100 100 100 100
100 100 100 100 100 100 100 100 100 100 100 100 100 100 100 100 100 100 100 100 100 100 100 66 21 5 5 4 5 5 5 6 5 75 68 90 100 100 100 100 100 100 100 100
100 100 100 100 100 100 100 100 100 92 100 100 100 100 100 100 100 100 100 100 98 84 27 5 12 18 5 5 5 5 5 67 90 19 5 100 100 100 100 100 100 100 100 100
100 100 100 100 100 100 100 100 99 100 100 100 100 100 100 100 100 100 100 74 64 11 34 5 5 73 79 25 29 28 100 100 100 78 7 100 100 100 100 100 100 100 100 100
100 100 100 100 100 100 100 100 100 100 100 100 100 100 100 100 100 100 100 53 19 5 5 5 60 63 100 100 100 100 100 100 100 92 71 100 100 100 100 100 100 100 100 100
100 100 100 100 100 100 100 100 100 100 100 100 65 84 100 100 89 42 32 57 12 10 81 44 97 99 79 98 100 100 100 99 100 70 80 100 100 100 100 100 100 100 100 100
100 100 100 100 100 100 100 99 100 100 100 98 100 100 100 100 100 63 13 48 42 36 55 80 68 100 90 94 100 94 90 87 95 80 84 100 100 100 100 100 100 100 100 100
100 100 100 97 96 100 100 100 100 100 100 96 93 100 100 100 100 98 75 50 77 96 99 100 100 100 100 100 100 90 65 64 66 72 100 100 100 100 100 100 100 100 100 100
99 100 100 100 100 100 100 100 100 100 100 100 100 100 100 100 100 100 72 57 93 100 100 100 100 100 100 100 97 80 40 65 98 97 100 100 100 100 100 100 100 100 100 100

GFSNW_prec_cloud_126.txt.gz
Cloud_Cover
100 100 76 100 100 100 100 100 100 100 100 100 100 100 100 28 100 100 100 94 100 100 100 98 100 100 97 31 71 5 7 3 0 0 5 99 70 5 0 5 30 17 56 2
100 90 100 100 99 81 100 100 100 100 100 100 70 70 77 56 72 79 100 97 100 100 100 100 100 87 90 18 65 19 6 4 4 0 4 8 5 5 5 5 10 6 9 24
100 100 100 100 100 46 100 100 100 100 100 64 17 49 97 76 55 89 100 100 100 100 100 100 100 100 72 5 2 1 5 4 0 5 47 8 5 5 20 5 64 23 47 23
100 100 100 100 100 100 100 100 67 22 94 100 95 79 18 15 46 83 96 84 61 98 72 100 100 100 100 12 5 3 4 2 2 5 12 28 5 4 81 5 93 51 87 5
100 100 100 100 100 100 100 100 83 53 5 11 99 100 44 18 27 12 24 16 13 100 100 100 100 100 100 100 24 5 5 5 5 5 100 21 6 94 81 100 100 16 5 18
100 100 100 100 100 100 100 100 100 43 16 61 100 100 4 5 5 6 0 2 29 100 42 100 100 100 100 41 48 70 2 28 80 9 98 9 100 32 71 68 40 5 2 31
100 100 96 100 100 100 100 82 100 100 75 20 55 41 23 32 48 2 1 2 72 73 96 98 95 87 6 5 58 5 6 97 63 94 19 78 100 95 100 41 6 56 86 99
100 100 100 100 100 100 100 100 100 100 100 100 100 100 100 100 99 5 4 70 85 96 96 100 100 58 95 76 5 5 34 98 98 100 73 100 100 100 98 6 26 28 44 86
5 7 82 92 100 100 100 100 100 100 100 99 100 100 100 100 98 26 59 63 17 84 100 100 91 52 7 41 5 44 100 100 100 100 78 100 100 98 6 5 86 5 5 69
3 22 100 100 100 97 92 100 100 100 100 100 100 100 100 100 39 15 22 92 100 89 64 100 100 13 55 86 50 100 90 100 100 100 100 100 100 17 42 56 16 22 23 54
58 22 100 100 100 100 22 17 100 100 100 100 100 100 100 100 56 3 16 78 94 94 100 100 96 79 68 100 86 93 100 100 100 100 100 100 89 81 99 6 39 100 100 97
100 100 99 91 100 34 35 98 100 100 100 100 100 100 100 87 10 1 5 1 0 6 58 89 84 99 98 99 97 100 100 100 100 100 99 98 100 100 92 53 41 100 100 100
100 100 99 7 100 98 7 33 100 100 100 100 64 55 62 24 5 36 42 5 6 96 23 88 100 100 100 100 100 100 100 100 100 100 100 100 100 83 7 42 5 100 100 100
100 100 61 25 68 71 5 17 99 100 100 100 85 8 75 52 74 79 100 97 100 100 100 100 100 100 100 100 100 100 100 100 100 100 100 100 91 18 5 5 5 22 100 97
100 100 35 5 23 5 8 39 100 100 100 100 100 100 100 100 100 97 100 100 100 100 100 100 100 100 100 92 100 100 100 98 100 100 70 43 6 5 5 5 5 13 100 100
100 100 100 41 50 5 93 100 100 100 100 100 100 100 100 78 32 100 100 100 100 100 100 100 100 100 100 100 100 100 100 100 100 16 5 5 5 5 5 5 5 11 100 100
100 100 70 5 5 17 98 40 100 100 100 100 100 98 100 100 100 100 100 100 100 100 100 100 100 100 100 100 100 100 100 93 5 5 10 97 35 52 17 18 26 91 100 100
42 5 3 66 90 86 86 100 100 100 100 99 86 95 100 100 100 100 100 100 100 100 100 100 100 100 100 100 100 100 62 5 5 5 5 5 5 6 79 95 87 100 100 100
5 19 98 44 59 88 100 100 100 100 100 83 94 76 100 100 100 100 100 100 100 100 100 100 100 100 100 100 100 20 5 9 7 5 5 5 5 34 71 76 100 100 100 100
12 90 93 100 100 100 100 100 100 100 100 66 100 100 100 100 100 100 100 99 100 100 100 100 100 100 100 15 4 5 5 5 5 6 99 100 100 100 91 97 100 100 100 100
100 100 100 91 52 100 100 100 98 100 100 100 100 100 100 100 100 100 100 100 98 100 100 100 94 50 8 5 5 5 5 5 5 5 5 5 43 99 100 100 100 100 100 100
48 60 100 100 100 100 100 94 85 88 100 100 100 100 92 100 100 98 82 100 100 100 97 55 11 5 5 14 5 5 5 12 64 5 5 5 5 98 100 100 100 100 100 100
100 100 100 100 99 100 100 100 100 100 100 100 100 100 99 94 70 100 100 100 100 100 67 24 5 7 14 100 87 70 100 100 100 98 64 16 75 100 100 100 100 100 100 100
100 100 100 100 100 100 100 100 100 100 100 100 100 100 100 100 100 100 100 100 32 60 52 5 11 99 100 100 100 100 100 100 100 99 77 100 92 100 100 100 100 100 100 100
100 100 100 100 100 100 100 100 100 99 88 100 100 87 96 100 100 99 57 58 55 8 19 87 82 99 79 99 100 100 100 82 96 100 87 81 93 100 100 100 100 100 100 100
100 100 100 100 100 100 100 100 100 100 98 96 72 99 100 100 98 80 75 91 83 42 98 94 95 100 100 100 100 100 98 82 78 74 72 76 97 100 100 100 100 100 100 100
100 100 100 100 100 100 100 100 100 100 100 100 100 100 99 92 96 99 100 100 100 97 100 100 100 100 100 100 100 100 90 62 77 80 98 82 98 100 100 100 100 100 100 100

GFSNW_prec_cloud_129.txt.gz
Cloud_Cover
100 100 100 100 100 100 100 100 100 100 100 100 100 100 100 100 100 100 100 100 100 100 100 100 100 100 100 82 100 100 100 97 94 100 86 8 8 5 5 100 11 6 21 0
100 100 100 100 100 100 100 100 100 100 100 100 100 100 100 100 100 100 100 100 100 100 100 100 100 95 46 97 100 100 99 38 95 81 24 5 5 5 14 100 74 1 5 1
100 100 100 100 100 100 100 100 100 100 100 100 100 100 100 100 100 100 100 100 100 100 100 100 84 79 61 58 100 100 98 29 5 3 5 19 26 7 99 97 55 3 10 13
100 100 100 100 100 100 100 100 84 89 100 100 100 100 100 100 100 100 99 65 89 100 100 94 87 98 97 99 99 88 100 88 4 4 5 10 0 4 8 16 4 4 61 97
100 100 100 100 100 100 100 100 97 53 72 15 85 100 45 99 100 100 94 93 100 100 15 80 96 94 40 100 87 88 100 83 11 5 5 5 1 5 91 5 12 38 92 100
100 100 100 100 100 100 100 100 58 72 24 49 92 25 40 100 80 92 54 48 100 98 52 47 96 100 100 100 100 100 100 100 99 5 5 5 5 100 6 58 100 66 48 12
100 100 100 100 100 100 100 100 100 100 100 84 61 99 91 81 95 82 20 4 4 5 4 52 5 97 100 99 99 100 100 100 96 47 5 52 93 100 44 84 100 74 39 25
100 100 100 100 100 100 100 100 100 100 100 100 100 100 100 100 100 100 93 78 5 36 26 100 97 100 95 70 97 100 98 10 100 92 86 6 100 100 96 50 97 20 12 84
100 100 100 100 100 100 100 100 100 100 100 100 100 100 100 100 100 100 98 57 7 32 100 100 64 48 46 53 5 16 100 49 70 75 96 58 100 100 53 83 75 7 5 98
100 100 100 100 100 100 100 100 100 100 100 100 100 100 100 100 100 100 100 100 92 48 93 100 100 98 74 17 5 95 22 37 73 97 85 100 100 26 33 48 25 5 13 5
100 100 100 100 100 100 96 98 100 100 100 100 100 100 100 100 100 100 100 100 68 100 100 100 88 47 65 40 100 94 82 98 100 100 100 100 100 5 69 14 5 5 5 5
100 100 100 100 100 100 100 100 100 100 94 100 100 100 100 100 100 100 100 100 77 63 80 85 97 58 65 100 29 33 100 100 100 100 100 100 100 96 29 5 35 6 5 5
54 5 10 80 94 100 73 100 100 100 100 100 100 100 100 100 100 100 100 100 90 5 86 88 9 50 100 44 66 100 100 100 100 97 100 100 100 100 35 69 5 5 5 5
100 89 12 72 100 100 96 64 83 100 100 100 100 85 97 100 100 100 100 100 99 44 5 7 95 100 95 100 100 100 100 100 100 100 100 100 100 100 100 34 34 5 5 5
100 100 100 100 100 100 100 100 49 13 72 100 100 90 100 100 100 100 100 94 100 100 97 100 100 100 100 100 94 100 100 100 100 98 100 95 100 100 64 29 5 5 5 5
100 100 100 100 100 100 100 100 100 50 97 100 100 100 100 100 100 100 100 100 100 100 100 100 97 100 100 89 100 100 100 100 100 70 100 100 100 79 5 5 5 5 5 6
100 100 96 10 100 99 94 23 44 94 100 100 100 100 100 100 100 100 100 100 100 100 100 100 100 100 99 100 100 98 100 100 100 100 100 100 88 41 5 5 5 5 54 81
100 97 94 100 100 100 86 100 100 100 100 100 100 100 100 100 100 100 100 100 100 100 100 100 100 100 100 100 100 100 100 100 100 100 100 58 5 5 5 30 59 52 82 92
100 100 100 100 100 93 100 100 100 100 100 100 100 100 100 100 100 100 100 100 100 100 100 100 100 100 100 100 100 100 100 100 98 19 5 5 5 6 19 79 89 96 73 98
100 100 100 100 100 100 100 100 100 100 100 100 100 100 100 100 100 100 100 100 99 100 100 100 100 100 100 100 100 99 35 5 5 44 98 99 96 100 99 90 100 95 100 100
42 99 100 100 100 100 100 100 100 100 100 71 84 98 100 100 100 100 100 100 100 100 100 100 100 70 100 99 30 5 5 5 5 5 5 5 5 95 100 99 100 99 100 100
54 94 100 100 100 100 100 96 100 71 29 87 100 94 100 98 80 100 100 100 100 100 100 91 18 96 64 7 5 5 5 5 5 5 5 5 5 98 100 100 100 100 100 100
16 74 100 100 100 100 71 60 20 96 100 100 100 98 100 100 100 100 100 100 100 61 100 100 100 33 16 5 5 5 5 17 63 60 15 5 40 64 92 100 100 100 100 100
66 52 48 52 86 96 100 100 100 100 100 100 100 100 100 100 100 100 96 96 97 100 100 93 29 26 27 76 9 7 84 96 100 100 80 50 100 95 93 100 100 100 100 100
100 100 100 100 100 100 100 100 100 73 81 100 100 100 100 100 100 100 76 88 100 100 74 67 95 21 100 99 100 90 100 86 69 67 85 100 100 82 100 100 100 100 100 100
100 100 100 100 100 100 100 100 100 99 100 92 97 100 100 98 83 45 94 100 100 100 96 100 62 96 100 100 100 100 98 69 100 100 96 83 76 74 100 99 100 100 100 100
99 98 99 100 100 100 100 100 100 100 100 99 85 92 77 100 100 100 100 100 100 100 82 100 100 100 100 100 100 100 97 66 73 76 75 74 75 78 100 98 98 100 100 100

GFSNW_prec_cloud_132.txt.gz
Cloud_Cover
100 100 100 100 100 100 100 100 100 100 100 100 100 100 100 100 100 100 100 99 100 100 100 100 100 100 100 100 100 100 100 100 29 91 99 100 100 98 5 5 4 5 100 15
100 100 100 100 100 98 100 100 100 100 100 100 100 100 100 100 100 100 100 100 100 100 100 100 100 100 100 100 100 100 100 100 100 77 100 83 51 5 6 36 43 5 87 1
100 100 100 99 100 84 100 100 100 100 100 100 100 100 100 100 100 100 100 100 100 100 100 100 100 100 100 100 100 100 100 100 95 90 98 79 7 5 6 94 70 2 0 0
100 100 100 100 100 100 100 100 96 77 100 100 100 100 100 100 100 100 100 100 100 100 100 100 100 100 100 100 100 100 100 100 100 100 100 100 5 5 5 9 0 4 0 0
100 100 100 100 100 100 100 100 99 55 94 100 100 100 100 100 100 100 100 100 100 100 100 100 100 100 100 100 100 100 96 56 18 41 100 100 5 29 4 0 0 0 0 25
5 82 100 100 100 100 100 100 98 100 27 11 98 99 100 100 100 100 100 100 100 100 100 100 100 100 99 94 92 100 99 99 100 93 100 83 5 7 5 3 0 0 13 100
13 86 100 100 100 100 100 100 100 100 100 89 46 100 100 100 100 100 100 100 100 100 100 100 75 52 65 37 32 100 72 98 100 100 100 84 79 5 1 0 26 5 97 100
100 100 100 100 100 100 100 100 100 100 100 100 100 100 100 100 100 100 100 100 100 100 96 60 80 20 5 78 5 36 72 100 100 97 16 3 4 5 4 5 98 80 100 100
100 100 100 100 100 100 100 100 100 100 100 100 100 100 100 100 100 100 100 100 100 100 98 90 79 56 27 100 58 95 100 100 100 64 100 56 26 3 5 32 98 100 100 72
100 100 100 100 100 100 74 92 100 100 100 100 100 100 100 100 100 100 100 100 100 100 8 51 92 91 49 49 58 94 99 100 47 62 76 18 75 100 48 97 100 100 100 40
100 100 100 100 100 100 100 74 100 100 100 100 100 100 100 100 100 100 100 100 100 100 100 100 99 96 85 96 37 74 100 91 86 84 100 57 100 100 63 100 100 100 88 29
100 100 100 100 100 100 100 100 91 100 100 100 100 100 100 100 100 100 100 100 100 100 100 96 54 74 76 20 50 100 26 100 99 62 39 100 100 100 99 100 100 91 24 5
100 100 100 100 100 100 100 100 100 100 92 100 100 100 100 100 100 100 100 100 100 100 100 73 78 22 46 30 6 7 100 100 17 25 100 100 100 100 93 77 99 66 8 5
100 100 100 100 100 100 91 97 100 100 93 97 100 100 100 100 100 100 100 100 100 100 100 60 87 37 36 45 8 96 100 87 97 77 100 100 100 100 100 100 47 24 6 5
100 100 100 100 100 100 100 100 100 100 100 99 100 100 100 100 100 100 100 100 100 100 100 84 87 48 58 98 96 91 100 100 43 80 100 100 100 100 100 99 100 53 43 55
100 100 100 100 100 100 100 100 100 99 100 100 100 99 100 100 100 100 100 100 100 96 100 100 97 87 100 96 98 100 100 52 51 100 100 100 100 100 100 100 100 81 44 41
100 100 100 100 90 100 100 79 95 100 100 100 100 100 100 100 100 100 100 100 100 98 100 100 100 70 99 88 100 99 97 98 74 100 100 100 100 100 68 42 62 63 64 58
100 100 100 100 100 100 100 52 93 100 100 100 100 100 100 100 100 100 99 100 100 100 100 87 94 100 98 100 100 100 98 100 100 100 100 100 100 74 52 25 17 14 5 5
100 100 100 100 100 100 100 100 100 69 100 100 100 100 100 100 100 100 100 100 100 100 100 90 94 100 100 100 100 100 100 100 100 95 76 17 5 6 6 7 13 51 33 46
94 100 100 100 100 100 100 100 100 100 100 100 100 100 100 100 100 98 100 100 100 100 97 99 100 100 100 100 100 100 100 100 60 23 80 18 32 27 36 67 58 91 99 99
100 100 100 100 98 100 100 100 100 100 100 100 100 100 100 100 100 100 100 100 100 99 100 100 100 100 100 100 100 100 97 33 5 5 5 5 5 5 71 99 88 90 76 99
28 55 75 98 100 100 100 100 100 100 100 100 100 100 100 100 100 100 100 100 100 100 100 100 100 100 100 100 100 58 18 5 5 5 5 5 5 94 100 100 87 75 86 100
92 97 100 93 100 62 47 70 42 74 99 95 75 98 100 99 100 100 100 100 100 100 100 100 100 100 100 100 61 51 5 5 5 5 5 5 8 62 100 96 83 86 100 100
100 93 27 39 56 80 98 100 99 40 5 35 77 98 93 96 100 100 100 100 100 100 100 100 100 100 95 63 32 5 48 100 100 100 94 31 100 99 100 85 93 100 100 100
89 60 97 98 95 89 96 83 35 10 13 43 78 79 98 100 100 100 100 100 100 100 100 100 100 77 100 100 100 100 100 99 90 89 77 100 100 100 95 90 94 99 100 100
45 78 100 100 100 100 100 100 100 87 94 23 95 100 100 100 100 100 100 100 100 100 100 100 87 98 100 100 100 100 100 100 100 100 100 100 100 86 90 90 99 94 100 100
100 100 100 100 92 100 100 100 82 84 88 100 100 100 100 100 100 100 100 100 100 100 100 100 100 100 100 100 100 100 100 98 100 100 100 86 84 88 96 82 94 85 83 98